Time,TemperatureF,DewpointF,PressureIn,WindDirection,WindDirectionDegrees,WindSpeedMPH,WindSpeedGustMPH,Humidity,HourlyPrecipIn,Conditions,Clouds,dailyrainin,SolarRadiationWatts/m^2,SoftwareType,DateUTC
2013-11-12 00:22:00,19.0,7.0,-100.00,North,2,13.0,19.0,58,0.00,,,0.00,0.000000,,2013-11-12 06:22:00,
2013-11-12 00:32:00,19.0,7.0,-100.00,North,2,13.0,19.0,58,0.00,,,0.00,0.000000,,2013-11-12 06:32:00,
2013-11-12 00:42:00,19.0,7.0,-100.00,North,2,13.0,19.0,58,0.00,,,0.00,0.000000,,2013-11-12 06:42:00,
2013-11-12 00:52:00,19.0,7.0,-100.00,North,2,13.0,19.0,58,0.00,,,0.00,0.000000,,2013-11-12 06:52:00,
2013-11-12 01:21:00,18.0,8.0,-100.00,North,358,13.0,19.0,63,0.00,,,0.00,0.000000,,2013-11-12 07:21:00,
2013-11-12 01:32:00,18.0,8.0,-100.00,North,358,13.0,19.0,63,0.00,,,0.00,0.000000,,2013-11-12 07:32:00,
2013-11-12 01:42:00,18.0,8.0,-100.00,North,358,13.0,19.0,63,0.00,,,0.00,0.000000,,2013-11-12 07:42:00,
2013-11-12 01:52:00,18.0,8.0,-100.00,North,358,13.0,19.0,63,0.00,,,0.00,0.000000,,2013-11-12 07:52:00,
2013-11-12 02:21:00,15.0,8.0,-100.00,North,359,8.0,14.0,73,0.00,,,0.00,0.000000,,2013-11-12 08:21:00,
2013-11-12 02:32:00,15.0,8.0,-100.00,North,359,8.0,14.0,73,0.00,,,0.00,0.000000,,2013-11-12 08:32:00,
2013-11-12 02:42:00,15.0,8.0,-100.00,North,359,8.0,14.0,73,0.00,,,0.00,0.000000,,2013-11-12 08:42:00,
2013-11-12 02:52:00,15.0,8.0,-100.00,North,359,8.0,14.0,73,0.00,,,0.00,0.000000,,2013-11-12 08:52:00,
2013-11-12 03:21:00,13.0,7.0,-100.00,NNW,348,7.0,10.0,77,0.00,,,0.00,0.000000,,2013-11-12 09:21:00,
2013-11-12 03:33:00,13.0,7.0,-100.00,NNW,348,7.0,10.0,77,0.00,,,0.00,0.000000,,2013-11-12 09:33:00,
2013-11-12 03:42:00,13.0,7.0,-100.00,NNW,348,7.0,10.0,77,0.00,,,0.00,0.000000,,2013-11-12 09:42:00,
2013-11-12 03:53:00,13.0,7.0,-100.00,NNW,348,7.0,10.0,77,0.00,,,0.00,0.000000,,2013-11-12 09:53:00,
2013-11-12 04:23:00,11.0,7.0,-100.00,NNW,330,5.0,9.0,85,0.00,,,0.00,0.000000,,2013-11-12 10:23:00,
2013-11-12 04:32:00,11.0,7.0,-100.00,NNW,330,5.0,9.0,85,0.00,,,0.00,0.000000,,2013-11-12 10:32:00,
2013-11-12 04:42:00,11.0,7.0,-100.00,NNW,330,5.0,9.0,85,0.00,,,0.00,0.000000,,2013-11-12 10:42:00,
2013-11-12 04:53:00,11.0,7.0,-100.00,NNW,330,5.0,9.0,85,0.00,,,0.00,0.000000,,2013-11-12 10:53:00,
2013-11-12 06:22:00,9.0,6.0,-100.00,WNW,298,5.0,7.0,86,-99.99,,,0.00,0.000000,,2013-11-12 12:22:00,
2013-11-12 06:32:00,9.0,6.0,-100.00,WNW,298,5.0,7.0,86,-99.99,,,0.00,0.000000,,2013-11-12 12:32:00,
2013-11-12 06:42:00,9.0,6.0,-100.00,WNW,298,5.0,7.0,86,-99.99,,,0.00,0.000000,,2013-11-12 12:42:00,
2013-11-12 06:52:00,9.0,6.0,-100.00,WNW,298,5.0,7.0,86,-99.99,,,0.00,0.000000,,2013-11-12 12:52:00,
2013-11-12 07:22:00,10.0,7.0,-100.00,NW,305,5.0,7.0,87,0.00,,,0.00,0.000000,,2013-11-12 13:22:00,
2013-11-12 07:32:00,10.0,7.0,-100.00,NW,305,5.0,7.0,87,0.00,,,0.00,0.000000,,2013-11-12 13:32:00,
2013-11-12 07:42:00,10.0,7.0,-100.00,NW,305,5.0,7.0,87,0.00,,,0.00,0.000000,,2013-11-12 13:42:00,
2013-11-12 07:52:00,10.0,7.0,-100.00,NW,305,5.0,7.0,87,0.00,,,0.00,0.000000,,2013-11-12 13:52:00,
2013-11-12 08:22:00,12.0,8.0,-100.00,WSW,243,3.0,6.0,85,0.00,,,0.00,0.000000,,2013-11-12 14:22:00,
2013-11-12 08:32:00,12.0,8.0,-100.00,WSW,243,3.0,6.0,85,0.00,,,0.00,0.000000,,2013-11-12 14:32:00,
2013-11-12 08:42:00,12.0,8.0,-100.00,WSW,243,3.0,6.0,85,0.00,,,0.00,0.000000,,2013-11-12 14:42:00,
2013-11-12 08:52:00,12.0,8.0,-100.00,WSW,243,3.0,6.0,85,0.00,,,0.00,0.000000,,2013-11-12 14:52:00,
2013-11-12 09:22:00,19.0,11.0,-100.00,NNE,16,4.0,6.0,72,0.00,,,0.00,0.000000,,2013-11-12 15:22:00,
2013-11-12 09:33:00,19.0,11.0,-100.00,NNE,16,4.0,6.0,72,0.00,,,0.00,0.000000,,2013-11-12 15:33:00,
2013-11-12 09:43:00,19.0,11.0,-100.00,NNE,16,4.0,6.0,72,0.00,,,0.00,0.000000,,2013-11-12 15:43:00,
2013-11-12 09:53:00,19.0,11.0,-100.00,NNE,16,4.0,6.0,72,0.00,,,0.00,0.000000,,2013-11-12 15:53:00,
2013-11-12 10:23:00,24.0,9.0,-100.00,SSE,162,2.0,5.0,52,0.00,,,0.00,0.000000,,2013-11-12 16:23:00,
2013-11-12 10:33:00,24.0,9.0,-100.00,SSE,162,2.0,5.0,52,0.00,,,0.00,0.000000,,2013-11-12 16:33:00,
2013-11-12 10:42:00,24.0,9.0,-100.00,SSE,162,2.0,5.0,52,0.00,,,0.00,0.000000,,2013-11-12 16:42:00,
2013-11-12 10:52:00,24.0,9.0,-100.00,SSE,162,2.0,5.0,52,0.00,,,0.00,0.000000,,2013-11-12 16:52:00,
2013-11-12 11:23:00,28.0,10.0,-100.00,SSE,155,4.0,7.0,46,0.00,,,0.00,0.000000,,2013-11-12 17:23:00,
2013-11-12 11:33:00,28.0,10.0,-100.00,SSE,155,4.0,7.0,46,0.00,,,0.00,0.000000,,2013-11-12 17:33:00,
2013-11-12 11:42:00,28.0,10.0,-100.00,SSE,155,4.0,7.0,46,0.00,,,0.00,0.000000,,2013-11-12 17:42:00,
2013-11-12 11:52:00,28.0,10.0,-100.00,SSE,155,4.0,7.0,46,0.00,,,0.00,0.000000,,2013-11-12 17:52:00,
2013-11-12 12:23:00,31.0,7.0,-100.00,SSW,208,5.0,10.0,36,0.00,,,0.00,0.000000,,2013-11-12 18:23:00,
2013-11-12 12:32:00,31.0,7.0,-100.00,SSW,208,5.0,10.0,36,0.00,,,0.00,0.000000,,2013-11-12 18:32:00,
2013-11-12 12:42:00,31.0,7.0,-100.00,SSW,208,5.0,10.0,36,0.00,,,0.00,0.000000,,2013-11-12 18:42:00,
2013-11-12 12:52:00,31.0,7.0,-100.00,SSW,208,5.0,10.0,36,0.00,,,0.00,0.000000,,2013-11-12 18:52:00,
2013-11-12 13:22:00,34.0,3.0,-100.00,SSW,210,8.0,11.0,26,0.00,,,0.00,0.000000,,2013-11-12 19:22:00,
2013-11-12 13:32:00,34.0,3.0,-100.00,SSW,210,8.0,11.0,26,0.00,,,0.00,0.000000,,2013-11-12 19:32:00,
2013-11-12 13:42:00,34.0,3.0,-100.00,SSW,210,8.0,11.0,26,0.00,,,0.00,0.000000,,2013-11-12 19:42:00,
2013-11-12 13:52:00,34.0,3.0,-100.00,SSW,210,8.0,11.0,26,0.00,,,0.00,0.000000,,2013-11-12 19:52:00,
2013-11-12 14:21:00,36.0,4.0,-100.00,SSW,210,9.0,13.0,25,0.00,,,0.00,0.000000,,2013-11-12 20:21:00,
2013-11-12 14:32:00,36.0,4.0,-100.00,SSW,210,9.0,13.0,25,0.00,,,0.00,0.000000,,2013-11-12 20:32:00,
2013-11-12 14:42:00,36.0,4.0,-100.00,SSW,210,9.0,13.0,25,0.00,,,0.00,0.000000,,2013-11-12 20:42:00,
2013-11-12 14:52:00,36.0,4.0,-100.00,SSW,210,9.0,13.0,25,0.00,,,0.00,0.000000,,2013-11-12 20:52:00,
2013-11-12 15:22:00,38.0,7.0,-100.00,SW,214,9.0,14.0,27,0.00,,,0.00,0.000000,,2013-11-12 21:22:00,
2013-11-12 15:34:00,38.0,7.0,-100.00,SW,214,9.0,14.0,27,0.00,,,0.00,0.000000,,2013-11-12 21:34:00,
2013-11-12 15:44:00,38.0,7.0,-100.00,SW,214,9.0,14.0,27,0.00,,,0.00,0.000000,,2013-11-12 21:44:00,
2013-11-12 15:54:00,38.0,7.0,-100.00,SW,214,9.0,14.0,27,0.00,,,0.00,0.000000,,2013-11-12 21:54:00,
2013-11-12 16:24:00,37.0,8.0,-100.00,SSW,201,11.0,16.0,30,0.00,,,0.00,0.000000,,2013-11-12 22:24:00,
2013-11-12 16:33:00,37.0,8.0,-100.00,SSW,201,11.0,16.0,30,0.00,,,0.00,0.000000,,2013-11-12 22:33:00,
2013-11-12 16:43:00,37.0,8.0,-100.00,SSW,201,11.0,16.0,30,0.00,,,0.00,0.000000,,2013-11-12 22:43:00,
2013-11-12 16:54:00,37.0,8.0,-100.00,SSW,201,11.0,16.0,30,0.00,,,0.00,0.000000,,2013-11-12 22:54:00,
2013-11-12 17:23:00,35.0,9.0,-100.00,South,187,8.0,16.0,34,0.00,,,0.00,0.000000,,2013-11-12 23:23:00,
2013-11-12 17:33:00,35.0,9.0,-100.00,South,187,8.0,16.0,34,0.00,,,0.00,0.000000,,2013-11-12 23:33:00,
2013-11-12 17:42:00,35.0,9.0,-100.00,South,187,8.0,16.0,34,0.00,,,0.00,0.000000,,2013-11-12 23:42:00,
2013-11-12 17:53:00,35.0,9.0,-100.00,South,187,8.0,16.0,34,0.00,,,0.00,0.000000,,2013-11-12 23:53:00,
2013-11-12 18:42:00,26.0,12.0,-100.00,South,173,6.0,10.0,54,0.00,,,0.00,0.000000,,2013-11-13 00:42:00,
2013-11-12 18:52:00,26.0,12.0,-100.00,South,173,6.0,10.0,54,0.00,,,0.00,0.000000,,2013-11-13 00:52:00,
2013-11-12 19:22:00,24.0,15.0,-100.00,South,187,7.0,9.0,68,0.00,,,0.00,0.000000,,2013-11-13 01:22:00,
2013-11-12 19:32:00,24.0,15.0,-100.00,South,187,7.0,9.0,68,0.00,,,0.00,0.000000,,2013-11-13 01:32:00,
2013-11-12 19:42:00,24.0,15.0,-100.00,South,187,7.0,9.0,68,0.00,,,0.00,0.000000,,2013-11-13 01:42:00,
2013-11-12 19:52:00,24.0,15.0,-100.00,South,187,7.0,9.0,68,0.00,,,0.00,0.000000,,2013-11-13 01:52:00,
2013-11-12 20:22:00,22.0,13.0,-100.00,South,176,6.0,9.0,67,0.00,,,-99.99,0.000000,,2013-11-13 02:22:00,
2013-11-12 20:32:00,22.0,13.0,-100.00,South,176,6.0,9.0,67,0.00,,,-99.99,0.000000,,2013-11-13 02:32:00,
2013-11-12 20:42:00,22.0,13.0,-100.00,South,176,6.0,9.0,67,0.00,,,-99.99,0.000000,,2013-11-13 02:42:00,
2013-11-12 20:52:00,22.0,13.0,-100.00,South,176,6.0,9.0,67,0.00,,,-99.99,0.000000,,2013-11-13 02:52:00,
2013-11-12 21:22:00,20.0,14.0,-100.00,SSE,165,7.0,9.0,76,0.00,,,0.00,0.000000,,2013-11-13 03:22:00,
2013-11-12 21:34:00,20.0,14.0,-100.00,SSE,165,7.0,9.0,76,0.00,,,0.00,0.000000,,2013-11-13 03:34:00,
2013-11-12 21:44:00,20.0,14.0,-100.00,SSE,165,7.0,9.0,76,0.00,,,0.00,0.000000,,2013-11-13 03:44:00,
2013-11-12 21:54:00,20.0,14.0,-100.00,SSE,165,7.0,9.0,76,0.00,,,0.00,0.000000,,2013-11-13 03:54:00,
2013-11-12 22:23:00,22.0,14.0,-100.00,South,170,9.0,11.0,71,0.00,,,0.00,0.000000,,2013-11-13 04:23:00,
2013-11-12 22:34:00,22.0,14.0,-100.00,South,170,9.0,11.0,71,0.00,,,0.00,0.000000,,2013-11-13 04:34:00,
2013-11-12 22:43:00,22.0,14.0,-100.00,South,170,9.0,11.0,71,0.00,,,0.00,0.000000,,2013-11-13 04:43:00,
2013-11-12 22:53:00,22.0,14.0,-100.00,South,170,9.0,11.0,71,0.00,,,0.00,0.000000,,2013-11-13 04:53:00,
2013-11-12 23:23:00,23.0,15.0,-100.00,South,171,10.0,13.0,71,0.00,,,0.00,0.000000,,2013-11-13 05:23:00,
2013-11-12 23:33:00,23.0,15.0,-100.00,South,171,10.0,13.0,71,0.00,,,0.00,0.000000,,2013-11-13 05:33:00,
2013-11-12 23:43:00,23.0,15.0,-100.00,South,171,10.0,13.0,71,0.00,,,0.00,0.000000,,2013-11-13 05:43:00,
2013-11-12 23:53:00,23.0,15.0,-100.00,South,171,10.0,13.0,71,0.00,,,0.00,0.000000,,2013-11-13 05:53:00,